EW2985 Weather Reports


time (UTC)temp
C
wind
direction
speed
KPH
gust
KPH
rain 1hr
cm
rain 24hr
cm
rain mn
cm
humidity
%
barometer
mb
20260504081537 8 261 0.0 3.2 0.00 0.00 0.00 57 1014.3
20260504050016 9 276 0.0 3.2 0.00 0.00 0.00 55 1014.5
20260504044515 9 228 0.0 1.6 0.00 0.00 0.00 56 1014.5
20260504043014 9 226 0.0 3.2 0.00 0.00 0.00 55 1014.4
20260504041511 10 246 0.0 3.2 0.00 0.00 0.00 54 1014.3
20260504040008 10 246 0.0 3.2 0.00 0.00 0.00 53 1014.1
20260504034508 10 259 0.0 1.6 0.00 0.00 0.00 53 1014.2
20260504033009 10 257 0.0 0.0 0.00 0.00 0.00 52 1014.1
20260504031507 10 250 1.6 3.2 0.00 0.00 0.00 51 1014.1
20260504030006 10 255 0.0 1.6 0.00 0.00 0.00 52 1014.0
20260504024505 10 253 0.0 3.2 0.00 0.00 0.00 52 1013.9
20260504023005 11 255 0.0 1.6 0.00 0.00 0.00 51 1013.9
20260504021504 11 254 0.0 1.6 0.00 0.00 0.00 50 1014.0
20260504020006 11 253 0.0 1.6 0.00 0.00 0.00 49 1013.9
20260504014502 11 253 0.0 1.6 0.00 0.00 0.00 48 1013.9
20260504013002 12 253 0.0 3.2 0.00 0.00 0.00 46 1013.7
20260504011501 12 250 0.0 1.6 0.00 0.00 0.00 45 1013.5
20260504010109 12 248 0.0 3.2 0.00 0.00 0.00 45 1013.6
20260504010001 12 246 0.0 3.2 0.00 0.00 0.00 45 1013.5
20260504004601 12 248 0.0 1.6 0.00 0.00 0.00 43 1013.4
20260504003100 13 243 0.0 1.6 0.00 0.00 0.00 40 1013.2
20260504001558 13 221 0.0 3.2 0.00 0.00 0.00 39 1013.0
20260504000138 14 253 0.0 3.2 0.00 0.00 0.00 37 1012.9
20260503234601 15 283 0.0 6.4 0.00 0.00 0.00 35 1012.7
20260503233056 16 225 0.0 14.5 0.00 0.00 0.00 32 1012.7
20260503231555 17 248 0.0 8.0 0.00 0.00 0.00 31 1012.7
20260503230057 17 224 4.8 12.9 0.00 0.00 0.00 30 1012.7
20260503224554 17 211 3.2 12.9 0.00 0.00 0.00 30 1012.6
20260503223053 17 176 3.2 16.1 0.00 0.00 0.00 29 1012.6
20260503221556 17 226 1.6 9.7 0.00 0.00 0.00 30 1012.6
20260503220050 17 248 3.2 17.7 0.00 0.00 0.00 30 1012.6
20260503214548 16 342 4.8 17.7 0.00 0.00 0.00 31 1012.6
20260503213148 16 302 3.2 11.3 0.00 0.00 0.00 30 1012.6
20260503211552 16 229 6.4 17.7 0.00 0.00 0.00 30 1012.5
20260503210045 17 242 4.8 19.3 0.00 0.00 0.00 29 1012.5
20260503204543 16 245 3.2 11.3 0.00 0.00 0.00 31 1012.6
20260503203100 16 246 3.2 12.9 0.00 0.00 0.00 30 1012.7
20260503201541 16 200 4.8 14.5 0.00 0.00 0.00 29 1012.7
20260503200037 16 204 4.8 12.9 0.00 0.00 0.00 31 1012.9
20260503194540 16 204 4.8 16.1 0.00 0.00 0.00 32 1013.1
20260503193033 15 137 6.4 27.4 0.00 0.00 0.00 31 1013.2
20260503191531 15 250 9.7 25.7 0.00 0.00 0.00 31 1013.3
20260503190035 14 266 9.7 20.9 0.00 0.00 0.00 33 1013.6
20260503184528 14 228 4.8 20.9 0.00 0.00 0.00 34 1013.8
20260503183029 14 298 9.7 19.3 0.00 0.00 0.00 34 1014.0
20260503181526 13 236 8.0 22.5 0.00 0.00 0.00 35 1014.0
20260503180028 13 226 8.0 20.9 0.00 0.00 0.00 35 1014.1
20260503174517 12 27 4.8 19.3 0.00 0.00 0.00 37 1014.3
20260503173033 12 4 3.2 19.3 0.00 0.00 0.00 38 1014.4
20260503171515 12 215 4.8 25.7 0.00 0.00 0.00 36 1014.4